Location: Caltech
(34.1382°N, 118.1253°W)
Time: 21:12:48
(UTC-07:00)

Iridium 49 - Visible Passes

Search period start: 15 April 2014 00:00
Search period end: 25 April 2014 00:00
Orbit: 776 x 779 km, 86.4° (Epoch: 15 April)

Date Brightness Start Highest point End Pass type
(mag) Time Alt. Az. Time Alt. Az. Time Alt. Az.
17 Apr 9.0 00:05:49 10° N 00:06:01 11° N 00:06:01 11° N visible
17 Apr 8.9 23:32:34 10° NNE 23:32:41 11° NNE 23:32:41 11° NNE visible
19 Apr 9.0 00:39:47 10° NNW 00:39:51 10° NNW 00:39:51 10° NNW visible
20 Apr 8.8 00:05:55 10° N 00:06:32 14° N 00:06:32 14° N visible
20 Apr 8.6 23:32:26 10° N 23:33:13 14° N 23:33:13 14° N visible
21 Apr 8.6 22:59:22 10° NNE 22:59:55 13° NNE 22:59:55 13° NNE visible
22 Apr 9.0 00:40:20 10° NNW 00:40:23 10° NNW 00:40:23 10° NNW visible
23 Apr 8.7 00:06:08 10° NNW 00:07:05 15° NNW 00:07:05 15° NNW visible
23 Apr 8.4 23:32:25 10° N 23:33:48 19° N 23:33:48 19° N visible
24 Apr 8.2 22:59:06 10° NNE 23:00:30 18° NNE 23:00:30 18° NNE visible
